Location: Gebenbach
(49.5378°N, 11.8735°E)
Time: 03:32:11
(UTC+00:00)

SeaSat 1 - Pass Details

Date: 29 October 2020
Orbit: 744 x 747 km, 108.0° (Epoch: 24 November)

Event Time Altitude Azimuth Distance (km) Brightness Sun altitude
Exits shadow 18:00:38 46° 84° (E) 1,000 2.6 -20.9°
Maximum altitude 18:01:25 51° 53° (NE) 941 2.6 -21.0°
Drops below altitude 10° 18:06:12 10° 339° (NNW) 2,276 5.2 -21.8°
Sets 18:08:31 0° 334° (NNW) 3,204 6.1 -22.1°
